FW7086 Weather Reports


Display with metric or nautical units.
time (UTC)temp
F
wind
direction
speed
MPH
gust
MPH
rain 1hr
in
rain 24hr
in
rain mn
in
humidity
%
barometer
mb
20260506091229 42 351 0.0 0.0 0.00 0.00 0.00 68 1013.3
20260506090727 42 351 0.0 0.0 0.00 0.00 0.00 68 1013.1
20260506090224 42 341 0.0 0.0 0.00 0.00 0.00 66 1013.4
20260506085721 42 341 0.0 0.0 0.00 0.00 0.00 66 1013.5
20260506085217 42 334 0.0 0.0 0.00 0.00 0.00 66 1013.1
20260506084714 42 352 0.0 0.0 0.00 0.00 0.00 66 1013.0
20260506084210 42 353 0.0 0.0 0.00 0.00 0.00 65 1012.8
20260506083707 43 353 0.0 0.0 0.00 0.00 0.00 64 1012.7
20260506083205 43 346 0.0 0.0 0.00 0.00 0.00 64 1012.9
20260506082702 43 0 0.0 0.0 0.00 0.00 0.00 63 1012.8
20260506082202 43 7 0.0 0.0 0.00 0.00 0.00 62 1012.9
20260506081700 44 5 0.0 0.0 0.00 0.00 0.00 61 1013.0
20260506081158 44 356 0.0 0.0 0.00 0.00 0.00 60 1012.8
20260506080655 44 352 0.0 0.0 0.00 0.00 0.00 59 1012.9
20260506080152 45 10 0.0 0.0 0.00 0.00 0.00 58 1012.8
20260506073135 46 12 0.0 0.0 0.00 0.00 0.00 55 1012.3
20260506072632 46 355 0.0 0.0 0.00 0.00 0.00 54 1012.7
20260506072130 46 15 1.0 2.0 0.00 0.00 0.00 53 1012.5
20260506071627 46 7 2.0 2.0 0.00 0.00 0.00 54 1012.5
20260506071125 47 7 2.0 3.0 0.00 0.00 0.00 55 1012.4
20260506070622 47 5 1.0 1.0 0.00 0.00 0.00 53 1012.5
20260506070119 47 10 2.0 2.0 0.00 0.00 0.00 53 1012.3
20260506062056 48 19 0.0 0.0 0.00 0.00 0.00 52 1012.5
20260506061552 48 44 1.0 2.0 0.00 0.00 0.00 51 1012.4
20260506061050 49 12 2.0 2.0 0.00 0.00 0.00 50 1012.7
20260506060548 49 16 1.0 1.0 0.00 0.00 0.00 49 1012.5
20260506051017 51 20 2.0 2.0 0.00 0.00 0.00 44 1011.9
20260506050514 51 358 2.0 2.0 0.00 0.00 0.00 43 1011.8
20260506045005 52 2 1.0 2.0 0.00 0.09 0.09 43 1011.8
20260506044503 52 6 4.0 6.0 0.00 0.09 0.09 42 1011.9
20260506044000 52 34 4.0 7.0 0.00 0.09 0.09 42 1011.8
20260506043457 53 38 3.0 6.0 0.00 0.09 0.09 41 1012.0
20260506042955 53 285 3.0 3.0 0.00 0.09 0.09 41 1012.0
20260506042454 53 337 4.0 6.0 0.00 0.09 0.09 41 1012.0
20260506041951 53 340 2.0 3.0 0.00 0.09 0.09 41 1012.0
20260506041449 53 327 0.0 0.0 0.00 0.09 0.09 41 1012.1
20260506040946 53 323 1.0 2.0 0.00 0.09 0.09 40 1012.1
20260506040444 53 346 2.0 3.0 0.00 0.09 0.09 41 1012.0
20260506035940 53 324 3.0 3.0 0.00 0.09 0.09 40 1012.1
20260506035437 53 329 3.0 4.0 0.00 0.09 0.09 40 1011.7
20260506034933 54 2 3.0 4.0 0.00 0.09 0.09 40 1011.7
20260506034431 54 335 4.0 4.0 0.00 0.09 0.09 39 1011.9
20260506033928 54 315 1.0 1.0 0.00 0.09 0.09 41 1011.7
20260506033425 53 333 2.0 4.0 0.00 0.09 0.09 41 1011.8
20260506032922 54 1 0.0 0.0 0.00 0.09 0.09 41 1011.6
20260506032419 53 359 0.0 1.0 0.00 0.09 0.09 41 1011.4
20260506031916 53 34 1.0 1.0 0.00 0.09 0.09 40 1011.4
20260506031413 54 16 1.0 1.0 0.00 0.09 0.09 40 1011.4
20260506030911 54 344 1.0 1.0 0.00 0.09 0.09 41 1011.5
20260506030408 54 342 1.0 1.0 0.00 0.09 0.09 41 1011.4
20260506025905 54 280 1.0 1.0 0.00 0.09 0.09 40 1011.3
20260506025402 53 39 2.0 2.0 0.00 0.09 0.09 41 1011.5
20260506024859 53 322 1.0 1.0 0.00 0.09 0.09 41 1011.5
20260506024356 54 276 1.0 1.0 0.00 0.09 0.09 41 1011.5
20260506023851 54 350 0.0 0.0 0.00 0.09 0.09 41 1011.4
20260506023349 54 279 2.0 3.0 0.00 0.09 0.09 39 1011.3
20260506022845 54 328 0.0 1.0 0.00 0.09 0.09 40 1011.2
20260506022343 54 268 2.0 2.0 0.00 0.09 0.09 40 1011.2
20260506021841 54 73 0.0 0.0 0.00 0.09 0.09 40 1011.0
20260506021337 54 339 2.0 3.0 0.00 0.09 0.09 40 1011.0
20260506020834 54 296 2.0 2.0 0.00 0.09 0.09 41 1011.0
20260506020332 54 322 0.0 0.0 0.00 0.09 0.09 42 1010.7
20260506015829 54 353 0.0 0.0 0.00 0.09 0.09 42 1010.7
20260506015327 54 305 0.0 1.0 0.00 0.09 0.09 41 1010.7
20260506014823 55 325 0.0 0.0 0.00 0.09 0.09 41 1010.7
20260506014320 55 334 4.0 6.0 0.00 0.09 0.09 40 1010.7
20260506013817 55 260 2.0 3.0 0.00 0.09 0.09 39 1010.7
20260506013314 55 293 2.0 3.0 0.00 0.09 0.09 39 1010.4
20260506012811 55 329 3.0 4.0 0.00 0.09 0.09 39 1010.2
20260506012308 55 359 2.0 2.0 0.00 0.09 0.09 39 1010.4
20260506011805 55 305 2.0 2.0 0.00 0.09 0.09 38 1010.4
20260506011301 55 245 2.0 2.0 0.00 0.09 0.09 38 1010.4
20260506010759 55 258 1.0 2.0 0.00 0.09 0.09 38 1009.9
20260506010257 55 304 1.0 2.0 0.00 0.09 0.09 38 1010.0
20260506005754 55 220 1.0 3.0 0.00 0.09 0.09 38 1009.9
20260506005251 55 324 4.0 6.0 0.00 0.09 0.09 37 1010.1
20260506004746 55 312 1.0 2.0 0.00 0.09 0.09 38 1009.9
20260506004244 55 289 2.0 2.0 0.00 0.09 0.09 38 1010.0
20260506003740 55 8 0.0 1.0 0.00 0.09 0.09 38 1009.7
20260506003237 55 37 2.0 3.0 0.00 0.09 0.09 36 1009.8
20260506002733 55 354 1.0 1.0 0.00 0.09 0.09 36 1009.7
20260506002229 55 290 6.0 7.0 0.00 0.09 0.09 35 1009.8
20260506001725 55 17 0.0 1.0 0.00 0.09 0.09 37 1010.0
20260506001223 55 354 2.0 4.0 0.00 0.09 0.09 35 1009.9
20260506000719 55 349 2.0 3.0 0.00 0.09 0.09 35 1009.9
20260506000219 55 335 1.0 1.0 0.00 0.09 0.09 35 1009.7
20260505235714 56 132 2.0 2.0 0.00 0.09 0.09 36 1009.8
20260505235212 56 335 2.0 2.0 0.00 0.09 0.09 35 1009.7
20260505234708 56 249 1.0 2.0 0.00 0.09 0.09 36 1009.8
20260505234206 56 326 2.0 4.0 0.00 0.09 0.09 37 1009.9
20260505233702 56 319 1.0 1.0 0.00 0.09 0.09 36 1009.8
20260505233200 56 273 4.0 7.0 0.00 0.09 0.09 35 1010.0
20260505232657 56 348 0.0 0.0 0.00 0.09 0.09 35 1009.8
20260505232155 56 230 3.0 4.0 0.00 0.09 0.09 34 1009.7
20260505231651 56 0 7.0 8.0 0.00 0.09 0.09 34 1010.0
20260505231150 56 341 4.0 4.0 0.00 0.09 0.09 34 1010.0
20260505230648 56 43 1.0 2.0 0.00 0.09 0.09 35 1009.8
20260505230144 56 309 1.0 2.0 0.00 0.09 0.09 34 1010.0
20260505225640 57 265 2.0 2.0 0.00 0.09 0.09 33 1010.2
20260505225137 57 283 3.0 4.0 0.00 0.09 0.09 33 1009.9
20260505224633 57 80 1.0 2.0 0.00 0.09 0.09 33 1010.2
20260505224131 57 246 3.0 6.0 0.00 0.09 0.09 34 1010.1
20260505223628 57 357 2.0 3.0 0.00 0.09 0.09 34 1010.2
20260505223124 57 303 5.0 8.0 0.00 0.09 0.09 33 1010.0
20260505222620 57 331 1.0 1.0 0.00 0.09 0.09 34 1010.0
20260505222117 57 2 1.0 2.0 0.00 0.09 0.09 33 1010.1
20260505221614 57 32 1.0 2.0 0.00 0.09 0.09 33 1010.1
20260505221110 57 338 3.0 3.0 0.00 0.09 0.09 34 1009.9
20260505220608 57 333 1.0 1.0 0.00 0.09 0.09 34 1010.2
20260505220106 57 317 1.0 2.0 0.00 0.09 0.09 34 1010.4
20260505215603 56 340 1.0 2.0 0.00 0.09 0.09 33 1010.3
20260505215101 57 14 1.0 1.0 0.00 0.09 0.09 33 1010.3
20260505214559 57 228 4.0 4.0 0.00 0.09 0.09 32 1010.2
20260505214056 57 358 2.0 3.0 0.00 0.09 0.09 32 1010.2
20260505213553 57 342 1.0 1.0 0.00 0.09 0.09 33 1010.1
20260505213049 57 318 1.0 2.0 0.00 0.09 0.09 33 1010.3
20260505212546 57 359 2.0 2.0 0.00 0.09 0.09 32 1010.3
20260505212044 57 328 2.0 2.0 0.00 0.09 0.09 33 1010.3
20260505211540 57 192 4.0 8.0 0.00 0.09 0.09 32 1010.2
20260505211037 57 38 3.0 4.0 0.00 0.09 0.09 31 1010.2
20260505210534 57 223 7.0 11.0 0.00 0.09 0.09 31 1010.3
20260505210031 57 281 3.0 4.0 0.00 0.09 0.09 31 1010.1
20260505205529 57 353 3.0 4.0 0.00 0.09 0.09 32 1010.2
20260505205026 57 99 1.0 1.0 0.00 0.09 0.09 32 1010.3
20260505204523 57 282 4.0 4.0 0.00 0.09 0.09 31 1010.4
20260505204020 57 266 3.0 3.0 0.00 0.09 0.09 32 1010.3
20260505203517 57 304 0.0 1.0 0.00 0.09 0.09 34 1010.3
20260505203014 57 38 1.0 2.0 0.00 0.09 0.09 34 1010.5
20260505202510 57 15 4.0 6.0 0.00 0.09 0.09 33 1010.6
20260505202006 57 342 3.0 3.0 0.00 0.09 0.09 31 1010.5
20260505201503 57 307 1.0 1.0 0.00 0.09 0.09 34 1010.5
20260505201001 57 238 0.0 0.0 0.00 0.09 0.09 34 1010.6
20260505200459 57 137 2.0 3.0 0.00 0.09 0.09 33 1010.5
20260505195954 57 303 3.0 4.0 0.00 0.09 0.09 32 1010.3
20260505195451 56 315 1.0 2.0 0.00 0.09 0.09 33 1010.3
20260505194948 57 262 3.0 4.0 0.00 0.09 0.09 33 1010.4
20260505194446 57 34 2.0 2.0 0.00 0.09 0.09 32 1010.5
20260505193946 57 230 4.0 8.0 0.00 0.09 0.09 32 1010.7
20260505193444 57 26 0.0 1.0 0.00 0.09 0.09 33 1010.7
20260505192941 57 352 2.0 2.0 0.00 0.09 0.09 32 1010.7
20260505192440 57 314 3.0 3.0 0.00 0.09 0.09 33 1010.7
20260505191936 57 263 3.0 3.0 0.00 0.09 0.09 33 1010.7
20260505191435 57 290 6.0 8.0 0.00 0.09 0.09 33 1010.9
20260505190931 56 246 2.0 3.0 0.00 0.09 0.09 34 1010.7
20260505190427 57 248 2.0 3.0 0.00 0.09 0.09 36 1010.7
20260505185922 57 160 0.0 1.0 0.00 0.09 0.09 36 1010.7
20260505185420 57 311 3.0 3.0 0.00 0.09 0.09 36 1010.8
20260505184916 57 355 1.0 2.0 0.00 0.09 0.09 38 1010.8
20260505184413 57 259 3.0 3.0 0.00 0.09 0.09 36 1010.9
20260505183910 57 221 3.0 6.0 0.00 0.09 0.09 35 1011.0
20260505183407 58 288 4.0 6.0 0.00 0.09 0.09 36 1010.7
20260505182903 57 95 4.0 4.0 0.00 0.09 0.09 35 1010.6
20260505182400 57 275 1.0 2.0 0.00 0.09 0.09 37 1010.7
20260505181857 58 230 6.0 7.0 0.00 0.09 0.09 34 1010.8
20260505181354 58 304 2.0 3.0 0.00 0.09 0.09 34 1010.8
20260505180851 58 252 4.0 8.0 0.00 0.09 0.09 35 1010.5
20260505180347 57 9 1.0 1.0 0.00 0.09 0.09 34 1010.4
20260505175844 57 0 2.0 3.0 0.00 0.09 0.09 34 1010.4
20260505175340 57 294 4.0 6.0 0.00 0.09 0.09 32 1010.7
20260505174837 58 101 1.0 1.0 0.00 0.09 0.09 35 1010.4
20260505174335 58 199 1.0 2.0 0.00 0.09 0.09 35 1010.5
20260505173830 57 251 3.0 4.0 0.00 0.09 0.09 35 1010.4
20260505173327 58 228 2.0 3.0 0.00 0.09 0.09 34 1010.3
20260505172824 57 104 3.0 4.0 0.00 0.09 0.09 36 1010.5
20260505172322 57 329 6.0 8.0 0.00 0.09 0.09 34 1010.6
20260505171821 59 327 4.0 6.0 0.00 0.09 0.09 38 1010.2
20260505171318 58 192 1.0 2.0 0.00 0.09 0.09 38 1010.3
20260505170815 58 303 1.0 2.0 0.00 0.09 0.09 38 1010.2
20260505170312 58 254 6.0 8.0 0.00 0.09 0.09 38 1010.2
20260505165807 57 307 2.0 3.0 0.00 0.09 0.09 41 1010.4
20260505165305 57 351 3.0 4.0 0.00 0.09 0.09 39 1010.1
20260505164759 57 339 4.0 7.0 0.00 0.09 0.09 39 1010.3
20260505164256 57 327 2.0 2.0 0.00 0.09 0.09 42 1010.4
20260505163754 57 6 1.0 1.0 0.00 0.09 0.09 39 1010.7
20260505163253 57 337 3.0 3.0 0.00 0.09 0.09 38 1010.5
20260505162750 57 350 1.0 1.0 0.00 0.09 0.09 39 1010.4
20260505162246 57 2 2.0 2.0 0.00 0.09 0.09 40 1010.3
20260505161743 56 255 4.0 6.0 0.00 0.09 0.09 40 1010.3
20260505161241 56 344 1.0 2.0 0.00 0.09 0.09 41 1010.1
20260505160738 55 275 2.0 2.0 0.00 0.09 0.09 43 1010.1
20260505160236 55 201 1.0 2.0 0.00 0.09 0.09 40 1010.3
20260505153215 54 6 2.0 2.0 0.00 0.09 0.09 45 1010.2
20260505152712 54 283 4.0 6.0 0.00 0.09 0.09 45 1010.2
20260505152208 53 314 1.0 1.0 0.00 0.09 0.09 46 1010.1
20260505151703 53 9 1.0 1.0 0.00 0.09 0.09 46 1010.0
20260505151201 54 262 3.0 3.0 0.00 0.09 0.09 45 1010.3
20260505150657 53 353 4.0 4.0 0.00 0.09 0.09 44 1010.4
20260505150155 52 275 3.0 4.0 0.00 0.09 0.09 47 1010.2
20260505140628 49 186 0.0 0.0 0.00 0.09 0.09 77 1010.9
20260505140125 49 114 1.0 1.0 0.00 0.09 0.09 77 1011.0
20260505124543 46 343 0.0 0.0 0.05 0.06 0.06 82 1010.4
20260505124039 47 293 1.0 1.0 0.00 0.05 0.05 81 1010.3
20260505123536 46 348 0.0 0.0 0.07 0.05 0.05 79 1009.9
20260505123032 46 320 1.0 2.0 0.07 0.05 0.05 80 1010.1
20260505122529 47 352 0.0 0.0 0.05 0.04 0.04 77 1010.3
20260505122026 47 45 0.0 1.0 0.12 0.04 0.04 75 1010.1
20260505121523 47 188 1.0 1.0 0.07 0.03 0.03 74 1010.5
20260505121019 48 276 2.0 2.0 0.05 0.02 0.02 70 1010.5
20260505120516 48 11 1.0 2.0 0.05 0.02 0.02 69 1010.7
20260505120011 48 357 4.0 6.0 0.00 0.01 0.01 66 1010.1
20260505115506 49 291 2.0 2.0 0.07 0.01 0.01 62 1009.9
20260505115004 49 257 1.0 2.0 0.07 0.01 0.01 61 1009.9
20260505114500 50 28 1.0 1.0 0.00 0.00 0.00 55 1009.3
20260505113957 50 323 3.0 3.0 0.00 0.00 0.00 53 1009.5
20260505113453 50 354 3.0 4.0 0.00 0.00 0.00 50 1009.4
20260505112949 51 315 3.0 4.0 0.00 0.00 0.00 50 1008.9
20260505112447 51 344 2.0 3.0 0.00 0.00 0.00 50 1008.7
20260505111944 51 13 3.0 3.0 0.00 0.00 0.00 51 1008.2
20260505111438 51 57 3.0 4.0 0.00 0.00 0.00 52 1008.2
20260505110934 51 351 3.0 3.0 0.00 0.00 0.00 52 1008.0
20260505110431 51 304 4.0 6.0 0.00 0.00 0.00 51 1008.6
20260505101902 51 319 1.0 1.0 0.00 0.00 0.00 63 1007.3
20260505101357 51 355 0.0 1.0 0.00 0.00 0.00 63 1007.2
20260505100853 52 338 1.0 1.0 0.00 0.00 0.00 61 1007.4
20260505100350 52 356 0.0 1.0 0.00 0.00 0.00 60 1007.6
20260505095845 53 343 1.0 2.0 0.00 0.00 0.00 56 1007.6
20260505095343 53 264 3.0 4.0 0.00 0.00 0.00 54 1007.9
20260505094839 53 330 3.0 3.0 0.00 0.00 0.00 54 1007.9
20260505094336 53 345 1.0 1.0 0.00 0.00 0.00 56 1007.7
20260505093831 53 2 1.0 2.0 0.00 0.00 0.00 54 1007.5
20260505093329 53 302 1.0 2.0 0.00 0.00 0.00 54 1007.6
20260505092826 53 344 4.0 4.0 0.00 0.00 0.00 53 1007.8
20260505092325 53 309 3.0 3.0 0.00 0.00 0.00 54 1007.3
20260505091821 54 41 1.0 2.0 0.00 0.00 0.00 56 1007.1